Chicago Executive, IL

8:21 AM CST on December 12, 2019 (GMT -0600)
Chicago Executive

Weather History for KPWK - November, 2019

Change the Weather History Date:

Thursday, November 14, 2019

  Actual Average Record
Temperature  
Mean Temperature 28 °F 41 °F  
Max Temperature 31 °F 49 °F 63 °F (2001)
Min Temperature 24 °F 33 °F 15 °F (1996)
Degree Days  
Heating Degree Days 38 24  
Month to date heating degree days 455 298  
Since 1 July heating degree days 881 819  
Cooling Degree Days 0 0  
Month to date cooling degree days 0 0  
Year to date cooling degree days 996 789  
Moisture  
Dew Point 19 °F    
Average Humidity 71    
Maximum Humidity 75    
Minimum Humidity 64    
Precipitation  
Precipitation T in 0.11 in 0.18 in (2002)
Month to date precipitation 0.09 1.43  
Year to date precipitation 41.97 30.06  
Sea Level Pressure  
Sea Level Pressure 30.25 in    
Wind  
Wind Speed 5 mph ()    
Max Wind Speed 15 mph    
Max Gust Speed 21 mph    
Visibility 7.7 miles    
Events Snow    
T = Trace of Precipitation, MM = Missing Value Source: Averaged Metar Reports

Daily Weather History Graph

Daily Weather History Graph

Search for Another Location

Airport or City:

Astronomy

Nov. 14, 2019 Rise Set
Actual Time 6:40 AM CST 4:31 PM CST
Civil Twilight 6:10 AM CST 5:01 PM CST
Nautical Twilight 5:36 AM CST 5:35 PM CST
Astronomical Twilight 5:03 AM CST 6:08 PM CST
Moon 6:15 PM CST (11/14) 8:36 AM CST (11/14)
Length of Visible Light 10h 50m
Length of Day
9h 50m
Waning Gibbous, 95% of the Moon is Illuminated
Nov 14
Waning Gibbous
Nov 19
Last Quarter
Nov 26
New
Dec 4
First Quarter
Dec 11
Full

Hourly Weather History & Observations

Time (CST) Temp. Windchill Dew Point Humidity Pressure Visibility Wind Dir Wind Speed Gust Speed Precip Events Conditions
12:52 AM 27.0 °F 23.0 °F 19.9 °F 75% 30.13 in 1.5 mi SW 3.5 mph - 0.00 in Snow Light Snow
1:52 AM 28.0 °F - 19.9 °F 72% 30.13 in 1.5 mi Calm Calm - 0.00 in   Overcast
2:52 AM 27.0 °F - 19.9 °F 75% 30.14 in 1.5 mi Calm Calm - 0.00 in   Overcast
3:40 AM 28.0 °F 21.7 °F 19.9 °F 72% 30.12 in 1.5 mi West 5.8 mph - N/A   Overcast
3:52 AM 28.0 °F 22.8 °F 19.9 °F 72% 30.15 in 1.5 mi WSW 4.6 mph - N/A   Overcast
4:52 AM 28.0 °F 22.8 °F 19.9 °F 72% 30.17 in 1.5 mi WNW 4.6 mph - N/A   Overcast
5:52 AM 27.0 °F 18.7 °F 19.9 °F 75% 30.19 in 1.5 mi NW 8.1 mph - N/A   Overcast
6:04 AM 27.0 °F 19.5 °F 19.9 °F 75% 30.16 in 9.0 mi NW 6.9 mph - N/A   Overcast
6:47 AM 26.6 °F 19.1 °F 19.4 °F 74% 30.18 in 10.0 mi NW 6.9 mph - N/A   Overcast
6:52 AM 27.0 °F 19.5 °F 19.9 °F 75% 30.22 in 9.0 mi WNW 6.9 mph - N/A   Overcast
7:38 AM 27.0 °F 23.0 °F 19.9 °F 75% 30.20 in 8.0 mi West 3.5 mph - N/A   Scattered Clouds
7:52 AM 26.1 °F 20.5 °F 19.0 °F 75% 30.24 in 9.0 mi West 4.6 mph - N/A   Clear
8:26 AM 28.0 °F 22.8 °F 19.9 °F 72% 30.22 in 9.0 mi West 4.6 mph - N/A   Overcast
8:52 AM 28.9 °F 23.9 °F 19.9 °F 69% 30.26 in 9.0 mi West 4.6 mph - N/A   Overcast
9:52 AM 28.9 °F 23.9 °F 21.0 °F 72% 30.27 in 10.0 mi WNW 4.6 mph - N/A   Overcast
10:52 AM 30.0 °F 23.2 °F 21.0 °F 69% 30.28 in 10.0 mi WNW 6.9 mph - N/A   Overcast
11:52 AM 30.0 °F 21.7 °F 21.0 °F 69% 30.27 in 10.0 mi WNW 9.2 mph - N/A   Overcast
12:52 PM 30.0 °F 22.4 °F 21.0 °F 69% 30.27 in 9.0 mi WNW 8.1 mph - N/A   Overcast
1:52 PM 30.0 °F 22.4 °F 19.0 °F 64% 30.27 in 10.0 mi West 8.1 mph - N/A   Overcast
2:52 PM 30.0 °F 23.2 °F 19.0 °F 64% 30.28 in 10.0 mi WNW 6.9 mph - N/A   Overcast
3:52 PM 28.9 °F 21.1 °F 19.9 °F 69% 30.30 in 10.0 mi West 8.1 mph 18.4 mph N/A   Overcast
4:52 PM 28.9 °F 20.4 °F 19.9 °F 69% 30.29 in 10.0 mi WSW 9.2 mph - N/A   Overcast
5:52 PM 28.9 °F 21.9 °F 19.9 °F 69% 30.33 in 10.0 mi West 6.9 mph - N/A   Overcast
6:52 PM 28.0 °F 17.5 °F 18.0 °F 66% 30.33 in 10.0 mi West 12.7 mph - N/A   Overcast
7:52 PM 27.0 °F 17.3 °F 17.1 °F 66% 30.33 in 10.0 mi West 10.4 mph 19.6 mph N/A   Overcast
8:44 PM 26.1 °F 19.4 °F 17.1 °F 69% 30.31 in 10.0 mi SW 5.8 mph - N/A   Scattered Clouds
8:52 PM 26.1 °F 19.4 °F 17.1 °F 69% 30.33 in 10.0 mi SW 5.8 mph - N/A   Partly Cloudy
9:52 PM 25.0 °F 20.7 °F 16.0 °F 69% 30.35 in 10.0 mi SW 3.5 mph - N/A   Clear
10:52 PM 25.0 °F 18.1 °F 17.1 °F 72% 30.34 in 10.0 mi Variable 5.8 mph - N/A   Clear
11:52 PM 25.0 °F 17.1 °F 17.1 °F 72% 30.34 in 9.0 mi WSW 6.9 mph - N/A   Clear